SCP
0 0 0 0 0 0 0 0 0 0 0 0 0 0 0 0 0 0 0 0 0 0 0 0 0 0 0 0 0 0 0 0 0 0 0 0 0 0 0 0 0 0 0
0 0 0 0 0 0 0 0 0 0 0 0 0 0 0 0 0 0 0 0 0 0 0 0 0 0 0 0 0 0 0 0 0 0 0 0 0 0 0 0 0 0 0
0 0 0 0 0 0 0 0 0 0 0 0 0 0 0 0 0 0 0 0 0 0 0 0 0 0 0 0 0 0 0 0 0 0 0 0 0 0 0 0 0 0 0
0 0 0 0 0 0 0 0 0 0 0 0 0 0 0 0 0 0 0 0 0 0 0 0 0 0 0 0 0 0 0 0 0 0 0 0 0 0 0 0 0 0 0
0 0 0 0 0 0 0 0 0 0 0 0 0 0 0 0 0 0 0 0 0 0 0 0 0 0 0 0 0 0 0 0 0 0 0 0 0 0 0 0 0 0 0
0 0 0 0 0 0 0 0 0 0 0 0 0 0 0 0 0 0 0 0 0 0 0 0 0 0 0 0 0 0 0 0 0 0 0 0 0 0 0 0 0 0 0
0 0 0 0 0 0 0 0 0 0 0 0 0 0 0 0 0 0 0 0 0 0 0 0 0 0 0 0 0 0 0 0 0 0 0 0 0 0 0 0 0 0 0
0 0 0 0 0 0 0 0 0 0 0 0 0 0 0 0 0 0 0 0 0 0 0 0 0 0 0 0 0 0 0 0 0 0 0 0 0 0 0 0 0 0 0
0 0 0 0 0 0 0 0 0 0 0 0 0 0 0 0 0 0 0 0 0 0 0 0 0 0 0 0 0 0 0 0 0 0 0 0 0 0 0 0 0 0 0
0 0 0 0 0 0 0 0 0 0 0 0 0 0 0 0 0 0 0 0 0 0 0 0 0 0 0 0 0 0 0 0 0 0 0 0 0 0 0 0 0 0 0
0 0 0 0 0 0 0 0 0 0 0 0 0 0 0 0 0 0 0 0 0 0 0 0 0 0 0 0 0 0 0 0 0 0 0 0 0 0 0 0 0 0 0
0 0 0 0 0 0 0 0 0 0 0 0 0 0 0 0 0 0 0 0 0 0 0 0 0 0 0 0 0 0 0 0 0 0 0 0 0 0 0 0 0 0 0
0 0 0 0 0 0 0 0 0 0 0 0 0 0 0 0 0 0 0 0 0 0 0 0 0 0 0 0 0 0 0 0 0 0 0 0 0 0 0 0 0 0 0
0 0 0 0 0 0 0 0 0 0 0 0 0 0 0 0 0 0 0 0 0 0 0 0 0 0 0 0 0 0 0 0 0 0 0 0 0 0 0 0 0 0 0
0 0 0 0 0 0 0 0 0 0 0 0 0 0 0 0 0 0 0 0 0 0 0 0 0 0 0 0 0 0 0 0 0 0 0 0 0 0 0 0 0 0 0
0 0 0 0 0 0 0 0 0 0 0 0 0 0 0 0 0 0 0 0 0 0 0 0 0 0 0 0 0 0 0 0 0 0 0 0 0 0 0 0 0 0 0
0 0 0 0 0 0 0 0 0 0 0 0 0 0 0 0 0 0 0 0 0 0 0 0 0 0 0 0 0 0 0 0 0 0 0 0 0 0 0 0 0 0 0
0 0 0 0 0 0 0 0 0 0 0 0 0 0 0 0 0 0 0 0 0 0 0 0 0 0 0 0 0 0 0 0 0 0 0 0 0 0 0 0 0 0 0
0 0 0 0 0 0 0 0 0 0 0 0 0 0 0 0 0 0 0 0 0 0 0 0 0 0 0 0 0 0 0 0 0 0 0 0 0 0 0 0 0 0 0
0 0 0 0 0 0 0 0 0 0 0 0 0 0 0 0 0 0 0 0 0 0 0 0 0 0 0 0 0 0 0 0 0 0 0 0 0 0 0 0 0 0 0
0 0 0 0 0 0 0 0 0 0 0 0 0 0 0 0 0 0 0 0 0 0 0 0 0 0 0 0 0 0 0 0 0 0 0 0 0 0 0 0 0 0 0
0 0 0 0 0 0 0 0 0 0 0 0 0 0 0 0 0 0 0 0 0 0 0 0 0 0 0 0 0 0 0 0 0 0 0 0 0 0 0 0 0 0 0
0 0 0 0 0 0 0 0 0 0 0 0 0 0 0 0 0 0 0 0 0 0 0 0 0 0 0 0 0 0 0 0 0 0 0 0 0 0 0 0 0 0 0
0 0 0 0 0 0 0 0 0 0 0 0 0 0 0 0 0 0 0 0 0 0 0 0 0 0 0 0 0 0 0 0 0 0 0 0 0 0 0 0 0 0 0
0 0 0 0 0 0 0 0 0 0 0 0 0 0 0 0 0 0 0 0 0 0 0 0 0 0 0 0 0 0 0 0 0 0 0 0 0 0 0 0 0 0 0
0 0 0 0 0 0 0 0 0 0 0 0 0 0 0 0 0 0 0 0 0 0 0 0 0 0 0 0 0 0 0 0 0 0 0 0 0 0 0 0 0 0 0
Wind_Speed
4 5 5 5 6 6 7 7 6 6 7 7 7 7 7 7 7 7 7 6 6 6 7 7 8 9 9 9 9 9 9 8 8 8 8 9 9 10 10 9 7 7 10
5 6 5 5 6 7 7 7 6 6 6 6 7 7 6 6 7 7 6 6 6 6 7 7 8 9 9 9 9 8 8 8 8 7 6 7 9 9 9 9 8 7 9
6 6 7 5 6 7 7 7 6 6 6 6 6 6 6 6 6 6 6 5 6 6 6 7 8 8 8 8 8 8 8 8 8 6 3 5 7 9 8 8 8 8 8
6 6 6 5 5 7 7 7 6 6 6 6 6 6 6 6 6 6 6 5 5 6 6 7 7 7 7 7 7 7 7 7 6 4 3 4 5 8 8 7 7 7 7
6 6 6 5 5 6 7 7 6 6 6 6 6 6 6 6 6 5 5 5 5 5 6 7 7 7 6 6 6 6 6 6 5 3 4 4 5 7 7 7 7 7 7
6 5 6 5 5 5 6 7 6 6 6 6 6 5 6 5 5 5 5 5 5 5 5 6 6 6 6 6 6 6 6 5 3 3 4 4 4 6 7 7 7 7 7
5 5 6 4 5 5 6 6 6 5 5 5 5 5 5 4 4 5 4 4 4 5 5 5 6 6 6 6 6 6 6 4 2 3 3 4 5 6 6 6 6 6 7
5 5 5 4 3 4 5 6 5 5 4 5 5 4 4 4 4 4 4 4 4 4 5 5 5 5 5 5 6 6 5 2 2 3 3 4 6 6 6 6 6 6 6
5 4 4 5 4 4 4 4 4 4 4 4 4 4 5 4 4 5 5 5 5 5 5 5 5 5 5 5 6 6 5 3 2 3 3 3 5 5 5 5 5 6 6
4 4 4 4 4 4 4 4 4 4 4 4 4 4 4 4 4 5 4 5 5 5 5 5 5 5 5 5 6 5 4 1 2 3 2 3 4 4 4 4 4 4 5
3 3 3 3 4 4 3 3 4 4 3 3 3 4 2 3 3 3 4 4 4 4 5 5 5 5 5 5 5 4 2 1 2 1 2 3 3 3 3 3 3 3 4
5 4 3 4 4 3 3 3 2 2 3 3 2 3 2 2 2 2 4 3 4 4 4 5 4 3 2 2 3 2 1 1 1 1 2 3 1 2 2 2 2 2 3
5 5 4 4 4 3 2 2 2 2 2 3 3 3 2 2 2 2 2 2 2 2 2 3 2 1 1 1 1 1 1 0 0 0 2 3 0 1 1 1 1 1 1
6 6 5 5 4 4 3 2 2 2 2 2 3 3 2 2 2 2 1 2 2 1 2 2 1 1 1 1 1 1 1 0 0 1 2 3 1 1 1 1 0 1 1
6 6 6 5 5 5 4 3 3 2 2 2 2 3 3 2 2 2 2 2 2 2 2 2 2 2 2 2 2 2 2 1 0 1 0 2 3 1 0 1 1 1 1
6 6 6 6 6 5 4 4 3 3 3 3 2 3 3 3 3 2 2 2 2 2 2 2 2 2 1 1 2 2 2 1 1 1 1 0 2 2 1 1 1 1 1
6 6 6 6 6 6 6 5 4 3 3 3 2 3 3 3 3 3 2 2 2 2 3 2 3 2 2 2 2 2 2 2 2 2 1 1 1 1 2 2 2 2 2
6 6 6 5 6 6 6 5 4 4 4 3 3 3 4 4 4 3 3 3 3 2 2 3 3 2 2 2 2 2 2 2 2 2 2 2 1 1 1 2 3 3 3
6 6 6 6 6 6 6 4 4 4 4 3 3 3 4 4 4 4 3 3 3 3 3 3 3 2 2 2 2 2 2 2 2 2 2 2 1 2 1 1 2 3 3
5 6 6 6 6 6 5 4 3 4 3 3 3 3 4 4 4 4 3 3 4 3 3 3 3 2 2 2 1 1 2 2 2 2 2 2 2 2 2 1 1 1 3
5 5 6 6 6 5 4 4 4 4 4 3 3 4 5 5 5 4 3 4 4 4 4 4 3 3 2 1 1 1 2 2 3 2 3 3 2 2 2 2 1 2 2
4 5 6 6 7 7 5 5 4 4 4 4 3 4 5 5 5 5 5 4 4 4 4 5 4 3 2 2 2 1 2 3 3 3 3 2 3 2 2 2 2 2 2
4 5 5 6 7 7 6 4 3 3 3 4 4 4 5 5 6 6 6 5 5 5 5 5 5 5 4 4 3 3 2 3 1 3 4 3 3 3 3 3 3 3 3
4 4 5 6 6 6 7 6 7 6 5 6 4 4 5 5 6 6 6 6 6 5 5 5 6 5 5 4 3 3 3 2 2 2 3 3 4 4 4 3 3 4 4
3 3 4 5 5 6 6 7 8 7 5 4 4 5 5 5 6 6 6 6 6 5 6 6 6 6 5 5 4 3 3 3 3 3 4 3 3 4 4 4 4 3 4
2 2 3 4 5 5 6 7 8 8 7 6 6 5 5 4 4 6 6 6 6 6 6 6 6 7 6 6 5 5 4 4 4 4 5 4 4 3 4 4 4 4 4
Wind_Direction
159 151 148 151 140 127 119 115 110 107 107 109 109 108 107 105 102 97 93 88 84 84 85 85 85 82 78 77 77 77 73 71 73 74 75 76 79 80 78 75 77 80 75
148 154 151 155 144 131 123 116 112 113 110 110 114 109 106 104 102 98 93 91 90 88 87 89 88 87 83 79 77 76 74 70 68 71 77 86 83 81 77 73 65 73 78
146 152 156 152 143 130 124 120 116 117 117 113 118 113 107 102 102 101 94 91 93 92 89 90 88 88 86 82 79 76 73 71 65 64 81 96 90 81 76 76 73 76 78
148 150 152 136 136 131 126 123 119 116 117 116 119 116 109 103 101 98 94 92 94 92 93 90 89 89 87 84 83 82 78 74 66 56 86 87 91 86 82 77 78 78 78
146 147 141 131 129 132 126 121 117 113 112 112 111 113 114 111 104 99 95 94 90 90 93 89 88 89 90 87 84 85 85 83 74 74 76 80 84 88 88 85 79 79 78
146 147 139 131 132 134 131 125 121 118 114 113 115 111 113 115 112 105 99 95 92 92 94 89 87 88 86 85 86 88 91 90 103 87 80 82 84 90 90 87 84 79 78
146 147 146 130 131 134 137 128 123 120 118 117 121 115 112 112 114 115 105 98 94 94 93 89 84 84 83 83 83 86 87 83 95 87 82 82 79 82 87 89 87 83 80
144 147 150 133 124 130 133 133 128 123 122 123 123 120 117 112 116 117 111 105 101 98 95 91 85 80 84 85 83 82 79 79 105 89 84 81 73 83 81 81 84 84 82
147 151 157 162 154 138 125 120 128 128 125 120 118 109 103 103 104 108 104 104 104 100 95 91 88 83 87 87 85 79 70 51 101 89 85 78 75 88 86 81 82 83 79
154 164 167 169 169 166 156 126 118 124 122 119 113 101 94 98 102 101 106 101 103 102 98 94 90 85 85 86 83 76 72 109 109 100 95 79 79 92 89 83 78 85 84
172 176 178 179 177 175 169 142 138 130 129 137 127 110 130 153 144 129 110 97 102 102 99 95 90 88 89 94 85 77 106 118 103 98 91 70 88 99 94 92 88 87 89
190 191 190 192 187 181 171 166 166 164 163 170 165 161 174 167 149 142 109 97 89 89 94 91 89 101 115 122 106 119 127 102 106 103 73 53 105 107 98 105 113 103 99
198 198 200 195 194 191 182 182 180 175 173 176 177 180 178 172 163 166 148 140 135 131 133 121 131 138 125 124 133 132 106 106 74 62 50 30 82 138 136 122 112 115 116
206 207 206 199 197 199 198 193 193 189 185 185 182 182 179 176 175 171 173 176 176 176 172 167 153 143 137 143 149 149 142 131 66 35 34 18 358 196 192 195 190 207 190
214 211 209 205 205 202 201 204 204 204 201 195 186 188 187 183 184 183 182 184 184 184 184 179 169 159 164 162 163 175 180 174 181 185 78 34 1 331 236 255 274 270 282
217 215 212 209 209 206 207 207 206 206 205 202 193 194 195 192 187 188 185 185 186 189 190 186 178 177 188 185 178 191 204 208 218 229 246 64 9 342 328 313 335 324 303
221 216 212 211 210 211 211 207 206 205 204 200 196 200 199 196 193 193 188 187 187 184 186 186 184 189 190 194 192 200 211 222 229 243 260 273 264 329 346 340 344 345 323
224 217 211 210 210 211 211 209 205 204 204 201 198 198 204 202 198 194 190 187 182 185 189 189 189 191 196 206 207 210 217 220 231 239 242 254 268 276 323 9 350 344 332
226 218 211 210 210 211 210 209 208 205 203 202 201 202 204 204 203 198 190 183 181 183 190 193 194 200 205 212 220 229 237 235 236 235 232 240 247 260 263 17 358 349 334
225 220 213 209 209 207 204 203 205 206 206 204 203 207 207 204 202 200 189 184 183 185 187 192 192 198 212 206 220 257 257 247 240 239 238 234 233 239 244 262 273 313 322
227 222 212 208 204 200 199 201 204 209 208 208 207 211 212 207 200 199 195 189 191 195 194 191 191 188 195 186 201 245 245 232 231 228 233 236 236 240 252 264 275 286 285
227 226 222 214 207 205 207 204 211 209 212 213 211 213 213 213 205 202 199 196 196 197 197 197 197 196 191 197 213 227 238 218 212 225 231 240 244 243 248 258 268 274 285
232 229 222 219 215 209 205 197 190 196 203 206 212 214 214 214 209 205 204 199 199 202 204 204 204 203 205 204 220 232 234 239 242 210 227 232 236 241 246 247 256 264 272
239 233 226 219 213 208 201 202 198 204 209 211 210 212 213 212 211 207 205 204 204 208 211 210 212 215 212 210 212 239 268 285 242 239 216 224 233 239 242 245 251 254 261
238 232 225 214 209 206 205 207 207 213 217 213 206 208 209 208 211 210 206 207 209 211 214 215 210 212 216 221 213 210 225 242 249 246 254 241 239 239 240 243 246 249 253
243 230 227 215 208 204 205 209 212 215 210 206 205 205 207 208 212 214 210 211 214 215 215 216 215 215 218 224 223 216 214 217 217 229 248 261 262 251 241 239 240 241 245